DELTA 1 DEB, 21352

Orbit data source: Space-Track

DELTA 1 DEB, 21352 is space debris in SSO originally from a launch on Thu, 12 Jun 1975 UTC launched from the Air Force Western Test Range (AFWTR). Debris objects in space refer to the collection of defunct objects orbiting the Earth. Examples of debris include non-operational satellites, rocket bodies, and fragments generated from explosions, collisions, or faulty payload assembly.

Loading next visibility...
Identifier
21352, 1975-052BW
Orbit
SSO
Country
Flag of USUS
Related business
Manufacturer
Unknown
Mission
Spacecraft
Bus & Motor
Unknown
Mass
Unknown
Launch date (UTC)
1975-06-12 (51 years ago)
Launch vehicle
Unknown
Launch site
Air Force Western Test Range (AFWTR)
Object type
Payload
Rocket body
Debris
Shape & HBR
Unknown shape, 0.1 m
Radar Cross Section
Small (<0.1 m²)

Expand to show TLE details & history
Last TLE update: 8 hours ago

TLE from 8 hours ago
0 DELTA 1 DEB
1 21352U 75052BW  25350.98359323  .00001316  00000-0  27957-2 0  9992
2 21352  99.5330  54.1761 0287073 278.0470 261.2453 13.18293079650077
Epoch: 2025-12-16T23:36Z
TLE epoch observation values (Epoch: 2025-12-16T23:36:22.455Z)
Latitude
3.79731°
Longitude
154.85799°
Altitude
1,232.714 km
Speed
7.22 km/s
True Right ascension
15h 39m 14s
True Declination
3° 46' 34"
Sunlit
Object was in daylight at epoch
Visualization orbit readout
Latitude
Unknown
Longitude
Unknown
Altitude
Unknown
Speed
Unknown
Apparent Right ascension
Unknown
Apparent Declination
Unknown
Sunlit
N/A
Visualization observer readout
Local Sidereal Time
06:25:31
Azimuth
Unknown
Elevation
Unknown
Doppler factor
Unknown
Orbital elements
Apogee altitude
1,405.799 km
Perigee altitude
971.359 km
Semi-major axis
7,566.716 km
Eccentricity
0.02871
Inclination
99.533°
RAAN
54.1761°
Arg. of periapsis
278.047°
True anomaly
258.01339°
Mean anomaly
261.2453°
Eccentric anomaly
259.62737°
Mean motion
3.29748 °/min
Orbital period
109.17 mins
BSTAR
0.0027957
Loading maneuver chart data...
Computing Atmospheric mass density...

Documentation

Showing up to 5 results
|